Powrót do katalogu

COSMOS 1275 DEB

AktywnyPO
NORAD 42187·DEBRIS·🇷🇺 Russia

Wystrzelony Jun 4, 1981 z Plesetsk Cosmodrome

Loading…

Następne Przeloty (najbliższe 24 godziny)

TLE

Starzejące sięSource: Space-Track

Epoka: Sep 6, 2026, 21:38 UTC

1 42187U 81053TB  26249.90165981  .00001473  00000-0  88355-3 0  9998
2 42187  82.9632  97.4116 0056163 120.1821 240.4932 14.05549191651452

Śledź COSMOS 1275 DEB w czasie rzeczywistym z AllMySat

Download on the App Store